TimeMST,TemperatureF,Dew PointF,Humidity,Sea Level PressureIn,VisibilityMPH,Wind Direction,Wind SpeedMPH,Gust SpeedMPH,PrecipitationIn,Events,Conditions,WindDirDegrees,DateUTC
12:15 AM,23.0,21.2,93,30.19,10.0,NW,6.9,-,N/A,,Clear,310,2013-03-01 07:15:00
12:35 AM,23.0,23.0,100,30.19,10.0,NW,6.9,-,N/A,,Clear,320,2013-03-01 07:35:00
1:15 AM,23.0,21.2,93,30.20,10.0,WNW,3.5,-,N/A,,Clear,300,2013-03-01 08:15:00
1:35 AM,23.0,19.4,86,30.20,10.0,West,6.9,-,N/A,,Clear,270,2013-03-01 08:35:00
1:55 AM,21.2,19.4,93,30.21,10.0,West,8.1,-,N/A,,Clear,270,2013-03-01 08:55:00
2:35 AM,21.2,19.4,93,30.22,10.0,West,8.1,-,N/A,,Clear,260,2013-03-01 09:35:00
2:55 AM,21.2,19.4,93,30.22,10.0,West,9.2,-,N/A,,Clear,270,2013-03-01 09:55:00
3:15 AM,21.2,19.4,93,30.22,10.0,West,8.1,-,N/A,,Clear,270,2013-03-01 10:15:00
3:35 AM,21.2,19.4,93,30.22,10.0,West,5.8,-,N/A,Rain,Freezing Rain,260,2013-03-01 10:35:00
3:55 AM,19.4,19.4,100,30.22,10.0,West,6.9,-,N/A,,Scattered Clouds,260,2013-03-01 10:55:00
4:15 AM,19.4,19.4,100,30.22,10.0,West,4.6,-,N/A,,Partly Cloudy,260,2013-03-01 11:15:00
4:35 AM,19.4,19.4,100,30.23,10.0,West,6.9,-,N/A,,Clear,280,2013-03-01 11:35:00
5:15 AM,19.4,17.6,93,30.25,10.0,NNW,3.5,-,N/A,,Clear,340,2013-03-01 12:15:00
5:35 AM,19.4,17.6,93,30.25,10.0,Calm,Calm,-,N/A,,Clear,0,2013-03-01 12:35:00
5:55 AM,19.4,17.6,93,30.25,10.0,Calm,Calm,-,N/A,,Clear,0,2013-03-01 12:55:00
6:15 AM,19.4,17.6,93,30.25,10.0,Calm,Calm,-,N/A,,Clear,0,2013-03-01 13:15:00
6:35 AM,17.6,17.6,100,30.25,10.0,SSW,3.5,-,N/A,,Clear,200,2013-03-01 13:35:00
6:55 AM,19.4,17.6,93,30.25,10.0,South,3.5,-,N/A,,Clear,180,2013-03-01 13:55:00
7:15 AM,19.4,19.4,100,30.26,10.0,Calm,Calm,-,N/A,,Clear,0,2013-03-01 14:15:00
7:35 AM,21.2,19.4,93,30.26,10.0,Calm,Calm,-,N/A,,Clear,0,2013-03-01 14:35:00
7:55 AM,23.0,21.2,93,30.26,10.0,Calm,Calm,-,N/A,,Clear,0,2013-03-01 14:55:00
8:15 AM,23.0,23.0,100,30.26,10.0,Calm,Calm,-,N/A,,Clear,0,2013-03-01 15:15:00
8:35 AM,24.8,23.0,93,30.27,10.0,South,3.5,-,N/A,,Clear,170,2013-03-01 15:35:00
9:15 AM,28.4,26.6,93,30.25,10.0,South,4.6,-,N/A,,Clear,170,2013-03-01 16:15:00
9:35 AM,32.0,26.6,80,30.25,10.0,SSE,4.6,-,N/A,,Clear,160,2013-03-01 16:35:00
10:15 AM,32.0,26.6,80,30.24,10.0,SSE,6.9,-,N/A,,Clear,150,2013-03-01 17:15:00
10:35 AM,33.8,24.8,70,30.23,10.0,South,8.1,-,N/A,,Clear,170,2013-03-01 17:35:00
11:15 AM,35.6,26.6,70,30.23,10.0,SSE,8.1,-,N/A,,Partly Cloudy,150,2013-03-01 18:15:00
11:35 AM,35.6,24.8,65,30.22,10.0,South,10.4,-,N/A,,Clear,170,2013-03-01 18:35:00
11:55 AM,35.6,26.6,70,30.22,10.0,South,8.1,-,N/A,,Clear,170,2013-03-01 18:55:00
12:15 PM,37.4,26.6,65,30.21,10.0,SSE,8.1,-,N/A,,Mostly Cloudy,160,2013-03-01 19:15:00
12:35 PM,37.4,26.6,65,30.19,10.0,South,10.4,-,N/A,,Scattered Clouds,190,2013-03-01 19:35:00
12:55 PM,39.2,24.8,56,30.18,10.0,SSW,12.7,-,N/A,,Scattered Clouds,200,2013-03-01 19:55:00
1:15 PM,39.2,24.8,56,30.17,10.0,SSW,10.4,-,N/A,,Mostly Cloudy,200,2013-03-01 20:15:00
1:35 PM,39.2,24.8,56,30.17,10.0,SSW,10.4,-,N/A,,Overcast,200,2013-03-01 20:35:00
1:55 PM,39.2,24.8,56,30.17,10.0,South,9.2,-,N/A,,Overcast,190,2013-03-01 20:55:00
2:15 PM,39.2,24.8,56,30.17,10.0,SSW,10.4,-,N/A,,Overcast,200,2013-03-01 21:15:00
2:35 PM,39.2,24.8,56,30.16,10.0,SSW,9.2,-,N/A,,Overcast,200,2013-03-01 21:35:00
2:55 PM,39.2,24.8,56,30.15,10.0,South,11.5,-,N/A,,Overcast,190,2013-03-01 21:55:00
3:15 PM,41.0,24.8,53,30.13,10.0,SSW,13.8,-,N/A,,Mostly Cloudy,200,2013-03-01 22:15:00
3:35 PM,39.2,24.8,56,30.13,10.0,South,10.4,-,N/A,,Partly Cloudy,190,2013-03-01 22:35:00
3:55 PM,39.2,26.6,61,30.14,10.0,SSW,6.9,-,N/A,,Scattered Clouds,200,2013-03-01 22:55:00
4:15 PM,39.2,26.6,61,30.14,10.0,South,6.9,-,N/A,,Partly Cloudy,190,2013-03-01 23:15:00
4:35 PM,39.2,26.6,61,30.15,10.0,South,6.9,-,N/A,,Clear,180,2013-03-01 23:35:00
4:55 PM,39.2,26.6,61,30.15,10.0,SSE,5.8,-,N/A,,Clear,160,2013-03-01 23:55:00
5:15 PM,37.4,28.4,70,30.14,10.0,SSE,8.1,-,N/A,,Partly Cloudy,160,2013-03-02 00:15:00
5:35 PM,35.6,28.4,75,30.14,10.0,SSE,6.9,-,N/A,,Scattered Clouds,160,2013-03-02 00:35:00
5:55 PM,35.6,26.6,70,30.13,10.0,SSE,6.9,-,N/A,,Mostly Cloudy,160,2013-03-02 00:55:00
6:15 PM,35.6,26.6,70,30.13,10.0,South,9.2,-,N/A,,Overcast,170,2013-03-02 01:15:00
6:35 PM,33.8,26.6,75,30.13,10.0,South,9.2,-,N/A,,Mostly Cloudy,180,2013-03-02 01:35:00
6:55 PM,35.6,26.6,70,30.11,10.0,South,9.2,-,N/A,,Overcast,170,2013-03-02 01:55:00
7:15 PM,33.8,26.6,75,30.11,10.0,South,6.9,-,N/A,,Overcast,190,2013-03-02 02:15:00
7:35 PM,35.6,28.4,75,30.10,10.0,South,9.2,-,N/A,,Overcast,180,2013-03-02 02:35:00
7:55 PM,33.8,28.4,81,30.10,10.0,South,6.9,-,N/A,,Overcast,180,2013-03-02 02:55:00
8:15 PM,32.0,28.4,87,30.09,10.0,South,9.2,-,N/A,,Mostly Cloudy,180,2013-03-02 03:15:00
8:35 PM,32.0,28.4,87,30.09,10.0,South,6.9,-,N/A,,Mostly Cloudy,190,2013-03-02 03:35:00
8:55 PM,32.0,28.4,87,30.09,10.0,South,6.9,-,N/A,,Overcast,190,2013-03-02 03:55:00
9:15 PM,32.0,28.4,87,30.08,10.0,South,10.4,-,N/A,,Mostly Cloudy,190,2013-03-02 04:15:00
9:35 PM,32.0,30.2,93,30.08,10.0,SSW,10.4,-,N/A,,Partly Cloudy,210,2013-03-02 04:35:00
9:55 PM,35.6,30.2,81,30.08,10.0,SW,11.5,-,N/A,,Partly Cloudy,230,2013-03-02 04:55:00
10:15 PM,37.4,30.2,75,30.07,10.0,SW,13.8,-,N/A,,Partly Cloudy,230,2013-03-02 05:15:00
10:35 PM,37.4,32.0,81,30.07,10.0,WSW,10.4,-,N/A,,Scattered Clouds,240,2013-03-02 05:35:00
10:55 PM,37.4,32.0,81,30.07,10.0,WSW,12.7,-,N/A,,Overcast,240,2013-03-02 05:55:00
11:15 PM,37.4,32.0,81,30.06,10.0,WSW,15.0,-,N/A,,Overcast,250,2013-03-02 06:15:00
11:35 PM,39.2,32.0,75,30.06,10.0,WSW,13.8,-,N/A,,Overcast,250,2013-03-02 06:35:00
11:55 PM,39.2,32.0,75,30.05,10.0,WSW,13.8,-,N/A,,Overcast,250,2013-03-02 06:55:00